TimePDT,TemperatureF,Dew PointF,Humidity,Sea Level PressureIn,VisibilityMPH,Wind Direction,Wind SpeedMPH,Gust SpeedMPH,PrecipitationIn,Events,Conditions,WindDirDegrees,DateUTC
12:53 AM,25.0,18.0,75,30.20,10.0,West,8.1,-,N/A,,Clear,260,2013-03-22 07:53:00
1:53 AM,23.0,18.0,81,30.21,10.0,Calm,Calm,-,N/A,,Clear,0,2013-03-22 08:53:00
2:53 AM,25.0,18.0,75,30.20,10.0,NW,4.6,-,N/A,,Scattered Clouds,310,2013-03-22 09:53:00
3:53 AM,23.0,17.1,78,30.21,10.0,West,6.9,-,N/A,,Partly Cloudy,270,2013-03-22 10:53:00
4:53 AM,24.1,16.0,71,30.20,10.0,West,5.8,-,N/A,,Overcast,260,2013-03-22 11:53:00
5:53 AM,25.0,17.1,72,30.21,9.0,West,8.1,-,0.00,Snow,Light Snow,270,2013-03-22 12:53:00
6:00 AM,24.8,17.6,74,30.16,9.0,West,9.2,-,0.00,Snow,Light Snow,270,2013-03-22 13:00:00
6:31 AM,24.8,17.6,74,30.16,9.0,West,9.2,-,0.00,,Overcast,280,2013-03-22 13:31:00
6:53 AM,23.0,17.1,78,30.22,10.0,West,3.5,-,0.00,,Mostly Cloudy,260,2013-03-22 13:53:00
7:53 AM,24.1,18.0,77,30.24,10.0,Calm,Calm,-,N/A,,Mostly Cloudy,0,2013-03-22 14:53:00
8:45 AM,26.6,19.4,74,30.18,10.0,Calm,Calm,-,0.00,Snow,Light Snow,0,2013-03-22 15:45:00
8:53 AM,26.1,18.0,71,30.25,9.0,Calm,Calm,-,0.00,Snow,Light Snow,0,2013-03-22 15:53:00
9:53 AM,27.0,19.0,72,30.24,9.0,East,4.6,-,0.00,,Mostly Cloudy,100,2013-03-22 16:53:00
10:53 AM,32.0,15.8,51,30.24,10.0,NNW,6.9,17.3,N/A,,Mostly Cloudy,340,2013-03-22 17:53:00
11:53 AM,35.1,12.9,40,30.22,10.0,NW,11.5,21.9,N/A,,Scattered Clouds,310,2013-03-22 18:53:00
1:53 PM,37.9,12.0,35,30.20,10.0,NNW,20.7,27.6,N/A,,Partly Cloudy,330,2013-03-22 20:53:00
2:53 PM,39.0,14.0,36,30.18,10.0,NNW,13.8,24.2,N/A,,Partly Cloudy,330,2013-03-22 21:53:00
3:53 PM,39.9,14.0,35,30.18,10.0,NNW,16.1,24.2,N/A,,Partly Cloudy,330,2013-03-22 22:53:00
4:53 PM,39.0,15.1,38,30.19,10.0,NNW,18.4,-,N/A,,Scattered Clouds,340,2013-03-22 23:53:00
5:53 PM,37.9,16.0,41,30.19,10.0,NNW,17.3,-,N/A,,Scattered Clouds,340,2013-03-23 00:53:00
6:53 PM,35.1,16.0,46,30.22,10.0,NNW,17.3,-,N/A,,Scattered Clouds,340,2013-03-23 01:53:00
7:53 PM,32.0,18.0,56,30.25,10.0,NNW,13.8,-,N/A,,Partly Cloudy,330,2013-03-23 02:53:00
8:53 PM,30.0,16.0,56,30.25,10.0,NW,10.4,-,N/A,,Partly Cloudy,320,2013-03-23 03:53:00
9:53 PM,30.0,16.0,56,30.27,10.0,North,8.1,16.1,N/A,,Partly Cloudy,350,2013-03-23 04:53:00
10:53 PM,26.1,15.1,63,30.28,10.0,NNW,3.5,-,N/A,,Clear,340,2013-03-23 05:53:00
11:53 PM,25.0,14.0,63,30.28,10.0,North,5.8,-,N/A,,Clear,10,2013-03-23 06:53:00